GSAT0101 (PRN E11) 1 37846U 11060A 19050.02094716 -.00000028 00000-0 00000+0 0 9990 2 37846 56.2941 54.6553 0005021 317.4128 42.5830 1.70475600 45640 GSAT0102 (PRN E12) 1 37847U 11060B 19050.82086753 -.00000033 00000-0 00000+0 0 9997 2 37847 56.2954 54.6321 0006632 304.6100 232.3509 1.70475536 45656 GSAT0103 (PRN E19) 1 38857U 12055A 19048.88952794 .00000002 00000-0 00000+0 0 9999 2 38857 54.9236 175.1587 0002384 245.7188 114.2039 1.70473546 39535 GSAT0104 (PRN E20) 1 38858U 12055B 19048.82376884 .00000003 00000-0 00000-0 0 9996 2 38858 54.9244 175.1596 0001168 245.1125 114.8229 1.70473521 39539 GSAT0201 (PRN E18) 1 40128U 14050A 19050.37312813 -.00000082 00000-0 00000-0 0 9999 2 40128 50.5492 20.7017 1659508 83.7185 294.8477 1.85519074 28725 GSAT0202 (PRN E14) 1 40129U 14050B 19050.63866042 -.00000084 00000-0 00000-0 0 9999 2 40129 50.5946 19.7101 1658996 84.6029 294.0188 1.85519678 30868 GSAT0203 (PRN E26) 1 40544U 15017A 19049.80011123 -.00000027 00000-0 00000-0 0 9990 2 40544 56.0856 54.8635 0005394 267.9215 92.0531 1.70474967 23597 GSAT0204 (PRN E22) 1 40545U 15017B 19050.16888735 -.00000029 00000-0 00000-0 0 9995 2 40545 56.0922 54.8668 0002968 258.3964 101.6046 1.70475252 24268 GSAT0205 (PRN E24) 1 40889U 15045A 19050.41255007 -.00000001 00000-0 00000+0 0 9994 2 40889 56.5389 295.4002 0004640 20.0012 340.0936 1.70474445 21417 GSAT0206 (PRN E30) 1 40890U 15045B 19045.35297294 .00000001 00000-0 00000+0 0 9996 2 40890 56.5424 295.5360 0002897 16.3479 343.7262 1.70474555 21351 GSAT0209 (PRN E09) 1 41174U 15079A 19048.45697362 .00000004 00000-0 00000+0 0 9996 2 41174 54.9372 174.8642 0003687 310.3460 49.5702 1.70473759 19721 GSAT0208 (PRN E08) 1 41175U 15079B 19049.84999454 -.00000001 00000-0 00000+0 0 9996 2 41175 54.9357 174.8258 0002839 312.0986 47.8255 1.70473756 19752 GSAT0211 (PRN E02) 1 41549U 16030A 19049.97234657 .00000002 00000-0 00000+0 0 9990 2 41549 56.6793 295.2157 0003000 336.6294 23.4341 1.70474245 17041 GSAT0210 (PRN E01) 1 41550U 16030B 19049.09229730 .00000005 00000-0 00000+0 0 9994 2 41550 56.6799 295.2416 0001648 304.4619 55.5989 1.70474320 17023 GSAT0207 (PRN E07) 1 41859U 16069A 19049.92339134 -.00000002 00000-0 00000-0 0 9999 2 41859 54.5956 175.3077 0003363 293.5291 66.3832 1.70473721 13957 GSAT0212 (PRN E03) 1 41860U 16069B 19048.60365119 .00000004 00000-0 00000-0 0 9998 2 41860 54.5931 175.3446 0002592 324.4855 35.4448 1.70473669 14025 GSAT0213 (PRN E04) 1 41861U 16069C 19050.14297270 -.00000002 00000-0 00000-0 0 9992 2 41861 54.5955 175.3046 0002502 260.7192 99.2006 1.70473764 14052 GSAT0214 (PRN E05) 1 41862U 16069D 19050.87644672 -.00000002 00000-0 00000-0 0 9995 2 41862 54.5938 175.2805 0001765 267.5625 92.3680 1.70473767 14057 GSAT0215 (PRN E21) 1 43055U 17079A 19049.60425796 .00000003 00000-0 00000-0 0 9996 2 43055 56.6541 295.0775 0000904 312.6624 47.4070 1.70473469 7378 GSAT0216 (PRN E25) 1 43056U 17079B 19049.89734584 .00000002 00000-0 00000+0 0 9994 2 43056 56.6545 295.0689 0002730 282.9912 77.0555 1.70473564 7367 GSAT0217 (PRN E27) 1 43057U 17079C 19050.70392650 -.00000002 00000-0 00000-0 0 9993 2 43057 56.6519 295.0482 0002583 303.6612 56.3905 1.70473535 7394 GSAT0218 (PRN E31) 1 43058U 17079D 19049.16410583 .00000005 00000-0 00000+0 0 9999 2 43058 56.6532 295.0878 0003097 275.1372 84.9041 1.70473587 7379 GSAT0221 (PRN E15) 1 43564U 18060A 19050.82703355 -.00000033 00000-0 00000-0 0 9992 2 43564 56.4781 54.3342 0006441 278.9808 80.9753 1.70475966 3575 GSAT0222 (PRN E33) 1 43565U 18060B 19050.46038167 -.00000030 00000-0 00000+0 0 9991 2 43565 56.4803 54.3430 0006332 284.9764 74.9847 1.70476030 3611 GSAT0219 (PRN E36) 1 43566U 18060C 19048.92050788 -.00000022 00000-0 00000+0 0 9994 2 43566 56.4793 54.3872 0005937 281.4081 78.5653 1.70475860 3563 GSAT0220 (PRN E13) 1 43567U 18060D 19050.31352627 -.00000030 00000-0 00000-0 0 9998 2 43567 56.4809 54.3492 0006128 282.9480 77.0158 1.70475715 3576